Weather History for Newport Airport, OR

Change the Weather History Date:

Saturday, January 5, 2013

  Actual Average Record
Temperature  
Mean Temperature 46 °F -  
Max Temperature 50 °F 48 °F 62 °F (2006)
Min Temperature 42 °F 40 °F 30 °F (2004)
Degree Days  
Heating Degree Days 19    
Moisture  
Dew Point 42 °F    
Average Humidity 93    
Maximum Humidity 100    
Minimum Humidity 82    
Precipitation  
Precipitation 0.23 in - - ()
Sea Level Pressure  
Sea Level Pressure 30.17 in    
Wind  
Wind Speed 6 mph (ESE)    
Max Wind Speed 14 mph    
Max Gust Speed -    
Visibility 9 miles    
Events Rain    
Averages and records for this station are not official NWS values.
T = Trace of Precipitation, MM = Missing Value Source: NWS Daily Summary

Daily Weather History Graph

Daily Weather History Graph

Search for Another Location

Airport:

Trip Planner

Search our weather history database for the weather conditions in past years. The results will help you decide how hot, cold, wet, or windy it might be!

Date:

Astronomy

Jan. 05, 2013 Rise Set
Actual Time 7:52 AM PST 4:51 PM PST
Civil Twilight 7:19 AM PST 5:24 PM PST
Nautical Twilight 6:43 AM PST 6:00 PM PST
Astronomical Twilight 6:07 AM PST 6:36 PM PST
Moon 12:57 AM PST (1/5) 11:51 AM PST (1/5)
Length of Visible Light 10h 04m
Length of Day
8h 58m
Last Quarter, 43% of the Moon is Illuminated
Jan 5
Last Quarter
Jan 11
New
Jan 18
First Quarter
Jan 26
Full
Feb 3
Last Quarter

Hourly Weather History & Observations

Time (PST) Temp. Windchill Dew Point Humidity Pressure Visibility Wind Dir Wind Speed Gust Speed Precip Events Conditions
12:15 AM 42.8 °F 41.1 °F 41.0 °F 93% 30.16 in 10.0 mi East 3.5 mph - N/A   Overcast
12:35 AM 42.8 °F 40.1 °F 41.0 °F 93% - 10.0 mi East 4.6 mph - N/A   Overcast
12:55 AM 42.8 °F 39.3 °F 41.0 °F 93% 30.16 in 10.0 mi East 5.8 mph - N/A   Mostly Cloudy
1:15 AM 42.8 °F 38.6 °F 41.0 °F 93% 30.16 in 10.0 mi East 6.9 mph - N/A   Overcast
1:35 AM 42.8 °F 38.6 °F 41.0 °F 93% 30.16 in 10.0 mi East 6.9 mph - N/A   Mostly Cloudy
1:55 AM 42.8 °F 37.0 °F 41.0 °F 93% 30.15 in 10.0 mi East 10.4 mph - N/A   Overcast
2:15 AM 42.8 °F 37.5 °F 41.0 °F 93% 30.16 in 10.0 mi East 9.2 mph - N/A   Overcast
2:35 AM 42.8 °F 37.0 °F 41.0 °F 93% 30.16 in 10.0 mi East 10.4 mph - N/A   Overcast
2:55 AM 42.8 °F 37.5 °F 41.0 °F 93% 30.16 in 10.0 mi East 9.2 mph - N/A   Overcast
3:15 AM 42.8 °F 38.6 °F 41.0 °F 93% 30.16 in 10.0 mi East 6.9 mph - N/A   Overcast
3:35 AM 42.8 °F 38.0 °F 41.0 °F 93% 30.16 in 10.0 mi East 8.1 mph - N/A   Overcast
3:55 AM 42.8 °F 37.5 °F 41.0 °F 93% 30.15 in 10.0 mi East 9.2 mph - N/A   Overcast
4:15 AM 42.8 °F 38.6 °F 41.0 °F 93% 30.15 in 10.0 mi East 6.9 mph - N/A   Overcast
4:35 AM 42.8 °F 38.6 °F 41.0 °F 93% 30.15 in 10.0 mi East 6.9 mph - N/A   Mostly Cloudy
5:15 AM 42.8 °F 37.5 °F 41.0 °F 93% 30.13 in 10.0 mi East 9.2 mph - N/A   Overcast
5:35 AM 42.8 °F 37.5 °F 41.0 °F 93% 30.14 in 10.0 mi East 9.2 mph - N/A   Overcast
5:55 AM 42.8 °F 37.5 °F 41.0 °F 93% 30.14 in 10.0 mi East 9.2 mph - N/A   Overcast
6:15 AM 42.8 °F 38.6 °F 41.0 °F 93% 30.14 in 10.0 mi East 6.9 mph - N/A   Overcast
6:35 AM 42.8 °F 37.0 °F 41.0 °F 93% 30.14 in 10.0 mi East 10.4 mph - N/A   Overcast
6:55 AM 42.8 °F 37.0 °F 41.0 °F 93% 30.14 in 10.0 mi East 10.4 mph - N/A   Overcast
7:15 AM 42.8 °F 37.5 °F 41.0 °F 93% 30.14 in 10.0 mi East 9.2 mph - N/A   Overcast
7:55 AM 42.8 °F - 41.0 °F 93% 30.15 in 10.0 mi Calm Calm - N/A   Overcast
8:15 AM 42.8 °F 41.1 °F 39.2 °F 87% 30.16 in 10.0 mi East 3.5 mph - N/A   Mostly Cloudy
8:55 AM 42.8 °F 38.6 °F 41.0 °F 93% - 10.0 mi East 6.9 mph - N/A   Scattered Clouds
9:15 AM 42.8 °F 37.5 °F 41.0 °F 93% 30.18 in 10.0 mi East 9.2 mph - N/A   Scattered Clouds
9:35 AM 42.8 °F 37.5 °F 41.0 °F 93% 30.19 in 10.0 mi East 9.2 mph - N/A   Clear
9:55 AM 42.8 °F 37.0 °F 41.0 °F 93% 30.19 in 10.0 mi East 10.4 mph - N/A   Scattered Clouds
10:15 AM 42.8 °F 38.6 °F 41.0 °F 93% 30.19 in 10.0 mi East 6.9 mph - N/A   Mostly Cloudy
10:35 AM 42.8 °F 38.0 °F 41.0 °F 93% 30.19 in 10.0 mi East 8.1 mph - N/A   Overcast
10:55 AM 44.6 °F 40.2 °F 41.0 °F 87% 30.19 in 10.0 mi ESE 8.1 mph - N/A   Mostly Cloudy
11:15 AM 44.6 °F 40.2 °F 41.0 °F 87% 30.19 in 10.0 mi ESE 8.1 mph - N/A   Overcast
11:35 AM 44.6 °F 39.7 °F 41.0 °F 87% 30.18 in 10.0 mi East 9.2 mph - N/A   Overcast
11:55 AM 44.6 °F 40.7 °F 41.0 °F 87% 30.18 in 10.0 mi East 6.9 mph - N/A   Overcast
12:15 PM 44.6 °F 40.7 °F 41.0 °F 87% 30.17 in 10.0 mi ESE 6.9 mph - N/A   Overcast
12:35 PM 44.6 °F 39.7 °F 41.0 °F 87% 30.16 in 10.0 mi East 9.2 mph - N/A   Overcast
12:55 PM 44.6 °F 40.7 °F 41.0 °F 87% 30.16 in 10.0 mi ESE 6.9 mph - N/A   Overcast
1:15 PM 46.4 °F 43.5 °F 42.8 °F 87% 30.15 in 10.0 mi ESE 5.8 mph - N/A   Overcast
1:35 PM 46.4 °F 43.5 °F 42.8 °F 87% 30.15 in 10.0 mi ESE 5.8 mph - N/A   Overcast
1:55 PM 46.4 °F 43.5 °F 42.8 °F 87% 30.15 in 10.0 mi ESE 5.8 mph - N/A   Overcast
2:15 PM 46.4 °F 43.5 °F 42.8 °F 87% 30.15 in 10.0 mi East 5.8 mph - N/A   Overcast
3:15 PM 50.0 °F - 44.6 °F 82% 30.16 in 10.0 mi South 6.9 mph - N/A   Overcast
3:35 PM 50.0 °F - 44.6 °F 82% 30.16 in 10.0 mi South 8.1 mph - N/A Rain Rain
3:55 PM 48.2 °F - 44.6 °F 87% 30.16 in 5.0 mi SSE 3.5 mph - 0.04 in Rain Light Rain
4:15 PM 48.2 °F - 44.6 °F 87% 30.17 in 5.0 mi South 13.8 mph - 0.01 in Rain Light Rain
4:35 PM 46.4 °F 41.5 °F 44.6 °F 93% 30.17 in 10.0 mi South 10.4 mph - 0.03 in Rain Light Rain
4:55 PM 46.4 °F 42.4 °F 42.8 °F 87% 30.18 in 10.0 mi South 8.1 mph - 0.03 in Rain Light Rain
5:15 PM 44.6 °F 40.2 °F 42.8 °F 93% 30.18 in 10.0 mi South 8.1 mph - 0.01 in Rain Light Rain
5:55 PM 44.6 °F 42.2 °F 42.8 °F 93% 30.18 in 10.0 mi South 4.6 mph - 0.01 in   Overcast
6:15 PM 44.6 °F 41.4 °F 42.8 °F 93% 30.18 in 10.0 mi SSE 5.8 mph - N/A   Overcast
6:35 PM 44.6 °F 43.1 °F 42.8 °F 93% 30.19 in 10.0 mi South 3.5 mph - N/A Rain Light Rain
6:55 PM 44.6 °F - 42.8 °F 93% 30.19 in 5.0 mi Calm Calm - 0.03 in Rain Rain
7:15 PM 44.6 °F 43.1 °F 44.6 °F 100% 30.19 in 10.0 mi South 3.5 mph - 0.01 in Rain Light Rain
7:35 PM 44.6 °F 41.4 °F 44.6 °F 100% 30.19 in 7.0 mi South 5.8 mph - 0.03 in Rain Light Rain
7:55 PM 44.6 °F 42.2 °F 44.6 °F 100% 30.19 in 3.0 mi South 4.6 mph - 0.06 in Rain Rain
8:15 PM 44.6 °F - 44.6 °F 100% 30.19 in 7.0 mi Calm Calm - 0.01 in   Light Drizzle
8:35 PM 44.6 °F - 44.6 °F 100% 30.19 in 7.0 mi Calm Calm - 0.01 in   Overcast
8:55 PM 44.6 °F - 44.6 °F 100% 30.20 in 3.0 mi Calm Calm - 0.06 in Rain Light Rain
9:15 PM 44.6 °F - 44.6 °F 100% 30.20 in 5.0 mi Calm Calm - N/A Rain Light Rain
9:35 PM 44.6 °F - 44.6 °F 100% 30.20 in 7.0 mi Calm Calm - N/A   Overcast
9:55 PM 44.6 °F - 44.6 °F 100% 30.21 in 7.0 mi Calm Calm - N/A   Overcast
10:15 PM 44.6 °F - 44.6 °F 100% 30.21 in 10.0 mi Calm Calm - N/A   Overcast
10:35 PM 44.6 °F 43.1 °F 44.6 °F 100% 30.21 in 10.0 mi SSE 3.5 mph - N/A   Overcast
10:55 PM 44.6 °F 42.2 °F 44.6 °F 100% 30.21 in 10.0 mi SSE 4.6 mph - N/A   Overcast
11:15 PM 44.6 °F 43.1 °F 44.6 °F 100% 30.21 in 7.0 mi SSE 3.5 mph - N/A   Light Drizzle
11:35 PM 44.6 °F 43.1 °F 42.8 °F 93% 30.21 in 10.0 mi SSE 3.5 mph - N/A   Mostly Cloudy
11:55 PM 42.8 °F - 42.8 °F 100% 30.20 in 10.0 mi Calm Calm - N/A   Mostly Cloudy